Location: Cudham
(51.3000°N, 0.0667°E)
Time: 16:46:31
(UTC+00:00)

USA 229 DEB - Pass Details

Date: 28 April 2026
Orbit: 844 x 1364 km, 63.4° (Epoch: 10 January)

Event Time Altitude Azimuth Distance (km) Brightness Sun altitude
Rises 00:53:26 0° 307° (NW) 4,085 7.0 -23.5°
Reaches altitude 10° 00:57:30 10° 286° (WNW) 3,215 6.2 -23.3°
Maximum altitude 01:01:31 15° 255° (WSW) 2,917 5.7 -23.1°
Enters shadow 01:01:43 15° 253° (WSW) 2,922 5.7 -23.1°
